SCP
0 0 0 0 0 0 0 0 0 0 0 0 0 0 0 0 0 0 0 0 0 0
0 0 0 0 0 0 0 0 0 0 0 0 0 0 0 0 0 0 0 0 0 0
0 0 0 0 0 0 0 0 0 0 0 0 0 0 0 0 0 0 0 0 0 0
0 0 0 0 0 0 0 0 0 0 0 0 0 0 0 0 0 0 0 0 0 0
0 0 0 0 0 0 0 0 0 0 0 0 0 0 0 0 0 0 0 0 0 0
0 0 0 0 0 0 0 0 0 0 0 0 0 0 0 0 0 0 0 0 0 0
0 0 0 0 0 0 0 0 0 0 0 0 0 0 0 0 0 0 0 0 0 0
0 0 0 0 0 0 0 0 0 0 0 0 0 0 0 0 0 0 0 0 0 0
-0 -0 0 0 0 0 0 0 0 0 0 0 0 0 0 0 0 0 0 0 0 0
0 -0 -0 0 0 0 0 0 0 0 0 0 0 0 0 0 0 0 0 0 0 0
0 0 -0 0 0 0 0 0 0 0 0 0 0 0 0 0 0 0 0 0 0 0
0 0 0 0 0 0 0 0 0 0 0 0 0 0 0 0 0 0 0 0 0 0
0 0 0 0 0 0 0 0 0 0 0 0 0 0 0 0 0 0 0 0 0 0
0 0 0 0 0 0 0 0 0 0 0 0 0 0 0 0 0 0 0 0 0 0
Wind_Speed_500mb
85 94 102 103 99 98 96 93 84 94 80 75 70 63 55 53 47 44 40 37 34 31
72 87 97 97 97 95 95 96 88 85 85 75 70 62 59 54 46 44 40 36 33 30
63 75 83 90 93 92 96 99 94 90 88 75 69 65 61 56 49 45 39 35 32 29
47 61 71 80 86 88 87 98 96 99 91 78 67 63 55 54 48 43 38 36 32 29
37 48 60 68 76 82 78 89 90 88 80 79 65 56 57 54 48 42 38 37 32 28
29 37 47 57 65 71 75 74 85 81 73 68 60 56 56 53 47 43 40 35 30 27
39 29 41 48 55 59 67 75 79 83 73 62 54 62 56 50 49 44 38 34 30 27
42 38 28 36 47 55 61 70 75 66 58 58 53 57 57 56 51 43 38 34 29 24
35 33 31 27 31 36 50 59 56 56 55 57 62 60 56 52 48 41 35 32 28 24
38 30 25 22 22 31 38 40 44 48 50 60 59 56 53 50 45 39 36 32 27 23
37 33 26 23 26 35 35 45 49 55 56 58 56 56 53 49 45 40 35 30 26 22
54 32 32 30 33 40 45 48 50 47 50 54 56 54 52 50 45 40 36 30 28 24
55 42 35 39 37 40 44 45 40 40 53 56 51 53 52 47 42 40 37 36 32 26
50 49 34 41 44 38 39 40 42 49 55 53 55 53 50 47 40 40 39 34 32 30
Wind_Direction_500mb
250 243 247 247 241 239 239 233 220 225 220 215 222 222 223 225 224 227 228 229 231 231
253 248 245 249 244 241 238 226 227 222 218 213 219 219 220 221 219 221 223 223 223 227
256 253 250 249 248 243 235 228 226 217 213 214 211 215 217 212 212 214 215 218 219 220
269 260 253 248 244 244 240 226 223 213 210 210 209 212 215 213 210 209 212 214 215 215
283 268 256 250 243 242 233 232 220 215 210 204 201 214 208 215 207 207 208 210 209 211
297 279 265 254 248 237 236 226 216 210 206 204 193 211 214 213 211 201 201 203 205 208
330 291 268 256 246 239 227 218 210 204 198 202 194 207 206 206 206 198 195 197 198 206
324 325 303 273 253 238 225 212 202 195 192 200 194 208 205 205 199 196 191 193 194 196
323 311 311 291 258 236 219 204 193 187 191 197 202 203 200 199 196 190 190 192 188 191
321 311 293 283 252 210 205 201 196 189 193 205 199 196 194 194 193 189 189 188 189 190
318 304 291 247 222 209 206 206 200 197 203 203 197 194 193 192 191 189 188 188 190 193
347 297 278 259 238 224 222 214 216 210 203 207 199 195 192 194 192 190 190 189 196 199
336 333 273 257 249 231 226 226 215 214 218 209 202 198 196 196 196 193 195 196 198 198
324 335 311 261 248 237 227 221 218 217 209 206 207 205 199 199 200 201 201 202 204 203
Wind_Speed_850mb
85 94 102 103 99 98 96 93 84 94 80 75 70 63 55 53 47 44 40 37 34 31
72 87 97 97 97 95 95 96 88 85 85 75 70 62 59 54 46 44 40 36 33 30
63 75 83 90 93 92 96 99 94 90 88 75 69 65 61 56 49 45 39 35 32 29
47 61 71 80 86 88 87 98 96 99 91 78 67 63 55 54 48 43 38 36 32 29
37 48 60 68 76 82 78 89 90 88 80 79 65 56 57 54 48 42 38 37 32 28
29 37 47 57 65 71 75 74 85 81 73 68 60 56 56 53 47 43 40 35 30 27
39 29 41 48 55 59 67 75 79 83 73 62 54 62 56 50 49 44 38 34 30 27
42 38 28 36 47 55 61 70 75 66 58 58 53 57 57 56 51 43 38 34 29 24
35 33 31 27 31 36 50 59 56 56 55 57 62 60 56 52 48 41 35 32 28 24
38 30 25 22 22 31 38 40 44 48 50 60 59 56 53 50 45 39 36 32 27 23
37 33 26 23 26 35 35 45 49 55 56 58 56 56 53 49 45 40 35 30 26 22
54 32 32 30 33 40 45 48 50 47 50 54 56 54 52 50 45 40 36 30 28 24
55 42 35 39 37 40 44 45 40 40 53 56 51 53 52 47 42 40 37 36 32 26
50 49 34 41 44 38 39 40 42 49 55 53 55 53 50 47 40 40 39 34 32 30
Wind_Direction_850mb
250 243 247 247 241 239 239 233 220 225 220 215 222 222 223 225 224 227 228 229 231 231
253 248 245 249 244 241 238 226 227 222 218 213 219 219 220 221 219 221 223 223 223 227
256 253 250 249 248 243 235 228 226 217 213 214 211 215 217 212 212 214 215 218 219 220
269 260 253 248 244 244 240 226 223 213 210 210 209 212 215 213 210 209 212 214 215 215
283 268 256 250 243 242 233 232 220 215 210 204 201 214 208 215 207 207 208 210 209 211
297 279 265 254 248 237 236 226 216 210 206 204 193 211 214 213 211 201 201 203 205 208
330 291 268 256 246 239 227 218 210 204 198 202 194 207 206 206 206 198 195 197 198 206
324 325 303 273 253 238 225 212 202 195 192 200 194 208 205 205 199 196 191 193 194 196
323 311 311 291 258 236 219 204 193 187 191 197 202 203 200 199 196 190 190 192 188 191
321 311 293 283 252 210 205 201 196 189 193 205 199 196 194 194 193 189 189 188 189 190
318 304 291 247 222 209 206 206 200 197 203 203 197 194 193 192 191 189 188 188 190 193
347 297 278 259 238 224 222 214 216 210 203 207 199 195 192 194 192 190 190 189 196 199
336 333 273 257 249 231 226 226 215 214 218 209 202 198 196 196 196 193 195 196 198 198
324 335 311 261 248 237 227 221 218 217 209 206 207 205 199 199 200 201 201 202 204 203